Location: Charlottesville
(38.0290°N, 78.4770°W)
Time: 00:53:35
(UTC-04:00)

Envisat - Pass Details

Date: 13 October 2017
Orbit: 764 x 766 km, 98.2° (Epoch: 20 October)

Event Time Altitude Azimuth Distance (km) Brightness Sun altitude
Exits shadow 20:56:59 40° 3° (N) 1,112 3.8 -27.9°
Drops below altitude 10° 21:00:16 10° 352° (N) 2,308 5.7 -28.6°
Sets 21:02:35 0° 350° (N) 3,238 6.5 -29.0°
